Wausau, WI

12:33 AM CDT on May 28, 2017 (GMT -0500)
Wausau Downtown

Weather History for KAUW - November, 2011

Change the Weather History Date:

Friday, November 25, 2011

  Actual Average Record
Temperature  
Mean Temperature 44 °F 28 °F  
Max Temperature 49 °F 35 °F 56 °F (1998)
Min Temperature 38 °F 20 °F -15 °F (1950)
Degree Days  
Heating Degree Days 21 38  
Month to date heating degree days 683 782  
Since 1 July heating degree days 1427 1666  
Cooling Degree Days 0 0  
Month to date cooling degree days 0 0  
Year to date cooling degree days 558 407  
Moisture  
Dew Point 40 °F    
Average Humidity 82    
Maximum Humidity 92    
Minimum Humidity 71    
Precipitation  
Precipitation 0.00 in 0.06 in 0.83 in (1952)
Month to date precipitation 0.94 1.71  
Year to date precipitation 33.59 30.76  
Snow  
Snow 0.00 in 0.30 in 4.00 in (1897)
Month to date snowfall 3.7 5.2  
Since 1 July snowfall 3.7 6.6  
Snow Depth 0.00 in    
Sea Level Pressure  
Sea Level Pressure 29.78 in    
Wind  
Wind Speed 6 mph (South)    
Max Wind Speed 15 mph    
Max Gust Speed 18 mph    
Visibility 9 miles    
Events      
T = Trace of Precipitation, MM = Missing Value Source: NWS Daily Summary

Daily Weather History Graph

Daily Weather History Graph

Search for Another Location

Airport or City:

Trip Planner

Search our weather history database for the weather conditions in past years. The results will help you decide how hot, cold, wet, or windy it might be!

Date:

Astronomy

Nov. 25, 2011 Rise Set
Actual Time 7:08 AM CST 4:21 PM CST
Civil Twilight 6:36 AM CST 4:54 PM CST
Nautical Twilight 5:59 AM CST 5:30 PM CST
Astronomical Twilight 5:24 AM CST 6:05 PM CST
Moon 7:39 AM CST (11/25) 4:46 PM CST (11/25)
Length of Visible Light 10h 18m
Length of Day
9h 13m
New Moon, 0% of the Moon is Illuminated
Nov 25
New Moon
Dec 2
First Quarter
Dec 10
Full
Dec 17
Last Quarter
Dec 24
New

Hourly Weather History & Observations

Time (CST) Temp. Windchill Dew Point Humidity Pressure Visibility Wind Dir Wind Speed Gust Speed Precip Events Conditions
12:54 AM 43.0 °F 39.5 °F 39.0 °F 86% 29.80 in 8.0 mi South 5.8 mph - N/A   Clear
2:54 AM 43.0 °F 39.5 °F 37.9 °F 82% 29.78 in 10.0 mi South 5.8 mph - N/A   Clear
4:54 AM 39.9 °F - 36.0 °F 86% 29.78 in 10.0 mi Calm Calm - N/A   Clear
5:54 AM 41.0 °F 38.0 °F 36.0 °F 82% 29.77 in 10.0 mi SSE 4.6 mph - N/A   Clear
6:54 AM 41.0 °F 35.8 °F 37.0 °F 86% 29.76 in 10.0 mi South 8.1 mph - N/A   Clear
7:54 AM 42.1 °F 38.4 °F 37.0 °F 82% 29.78 in 10.0 mi South 5.8 mph - N/A   Clear
8:54 AM 45.0 °F 39.7 °F 39.0 °F 80% 29.76 in 10.0 mi South 10.4 mph - N/A   Clear
9:54 AM 48.0 °F - 39.9 °F 74% 29.79 in 10.0 mi SSW 11.5 mph - N/A   Clear
10:54 AM 48.9 °F - 41.0 °F 74% 29.77 in 10.0 mi SSW 12.7 mph - N/A   Clear
11:11 AM 48.2 °F - 41.0 °F 76% 29.75 in 10.0 mi SW 10.4 mph - N/A   Mostly Cloudy
11:54 AM 48.9 °F - 41.0 °F 74% 29.76 in 10.0 mi SSW 6.9 mph - N/A   Overcast
12:54 PM 48.9 °F - 41.0 °F 74% 29.75 in 10.0 mi SSW 5.8 mph - N/A   Overcast
1:54 PM 48.9 °F - 41.0 °F 74% 29.76 in 9.0 mi South 5.8 mph - N/A   Overcast
3:54 PM 48.0 °F - 41.0 °F 77% 29.78 in 9.0 mi SSW 4.6 mph - N/A   Overcast
4:54 PM 48.0 °F - 41.0 °F 77% 29.78 in 10.0 mi South 5.8 mph - N/A   Overcast
5:54 PM 46.9 °F - 41.0 °F 80% 29.78 in 10.0 mi SE 4.6 mph - N/A   Overcast
6:54 PM 46.9 °F - 41.0 °F 80% 29.80 in 10.0 mi SSE 4.6 mph - N/A   Overcast
7:39 PM 46.4 °F 40.4 °F 42.8 °F 87% 29.78 in 7.0 mi South 13.8 mph - N/A   Overcast
7:54 PM 46.9 °F - 42.1 °F 83% 29.81 in 5.0 mi South 9.2 mph - N/A   Haze
8:54 PM 45.0 °F 41.8 °F 43.0 °F 93% 29.83 in 5.0 mi South 5.8 mph - N/A   Overcast
9:54 PM 46.0 °F 43.9 °F 42.1 °F 86% 29.81 in 6.0 mi SSE 4.6 mph - N/A   Overcast
10:54 PM 45.0 °F 42.6 °F 42.1 °F 90% 29.81 in 6.0 mi SSE 4.6 mph - N/A   Overcast
11:54 PM 46.0 °F 43.9 °F 42.1 °F 86% 29.80 in 5.0 mi SE 4.6 mph - N/A   Overcast